,,PA_Meas_PMT16A,,PR_Meas_QMR101_102,,RH_Meas_QMH101,,SR_Meas_QMS101,,TA_Meas_QMH101,,GenWind,,GenWind,
time,status,PA,status,PR,status,RH,status,SR,status,TA,status,DirAvg,status,SpdAvg,
2011-04-05, 00:00:04,VALID,919.221,VALID,0,VALID,95.0335,VALID,0,VALID,19.5273,VALID,18,VALID,0.798828,
2011-04-05, 00:01:04,VALID,919.17,VALID,0,VALID,95.0869,VALID,0,VALID,19.4868,VALID,18,VALID,0.782422,
2011-04-05, 00:02:04,VALID,919.171,VALID,0,VALID,94.9115,VALID,0,VALID,19.4688,VALID,18,VALID,0.70625,
2011-04-05, 00:03:04,VALID,919.127,VALID,0,VALID,95.1631,VALID,0,VALID,19.4688,VALID,18,VALID,0.807031,
2011-04-05, 00:04:04,VALID,919.157,VALID,0,VALID,95.2393,VALID,0,VALID,19.4493,VALID,18,VALID,0.728906,
2011-04-05, 00:05:04,VALID,919.142,VALID,0,VALID,95.3308,VALID,0,VALID,19.4493,VALID,18,VALID,0.490625,
2011-04-05, 00:06:04,VALID,919.147,VALID,0,VALID,95.3842,VALID,0,VALID,19.4478,VALID,18,VALID,0.665234,
2011-04-05, 00:07:04,VALID,919.128,VALID,0,VALID,95.4299,VALID,0,VALID,19.4283,VALID,18,VALID,0.439063,
2011-04-05, 00:08:04,VALID,919.16,VALID,0,VALID,95.4452,VALID,0,VALID,19.4283,VALID,18,VALID,0.20625,
2011-04-05, 00:09:04,VALID,919.091,VALID,0,VALID,95.3613,VALID,0.107441,VALID,19.4088,VALID,18,VALID,0.109766,
2011-04-05, 00:10:04,VALID,919.01,VALID,0,VALID,95.3232,VALID,0.107441,VALID,19.3893,VALID,18,VALID,0.580859,
2011-04-05, 00:11:04,VALID,918.977,VALID,0,VALID,95.2622,VALID,0.107441,VALID,19.3698,VALID,18,VALID,0.658594,
2011-04-05, 00:12:04,VALID,918.973,VALID,0,VALID,95.2698,VALID,0,VALID,19.3698,VALID,18,VALID,0.838281,
2011-04-05, 00:13:04,VALID,918.93,VALID,0,VALID,95.2851,VALID,0,VALID,19.3503,VALID,18,VALID,0.451562,
2011-04-05, 00:14:04,VALID,918.905,VALID,0,VALID,95.3537,VALID,0.107441,VALID,19.3698,VALID,18,VALID,0.740234,
2011-04-05, 00:15:04,VALID,918.908,VALID,0,VALID,95.3766,VALID,0.107441,VALID,19.3893,VALID,18,VALID,0.903906,
2011-04-05, 00:16:04,VALID,918.916,VALID,0,VALID,95.4147,VALID,0,VALID,19.4103,VALID,18,VALID,0.617188,
2011-04-05, 00:17:04,VALID,918.934,VALID,0,VALID,95.4071,VALID,0,VALID,19.3893,VALID,18,VALID,0.825391,
2011-04-05, 00:18:04,VALID,918.909,VALID,0,VALID,95.4528,VALID,0,VALID,19.4088,VALID,19,VALID,0.871484,
2011-04-05, 00:19:04,VALID,918.918,VALID,0,VALID,95.4452,VALID,0,VALID,19.3893,VALID,19,VALID,0.861719,
2011-04-05, 00:20:04,VALID,918.911,VALID,0,VALID,95.5138,VALID,0.107441,VALID,19.4283,VALID,19,VALID,0.982031,
2011-04-05, 00:21:04,VALID,918.876,VALID,0,VALID,95.4833,VALID,0,VALID,19.4088,VALID,146,VALID,1.05117,
2011-04-05, 00:22:04,VALID,918.843,VALID,0,VALID,95.5138,VALID,0.107441,VALID,19.4298,VALID,146,VALID,0.961328,
2011-04-05, 00:23:04,VALID,918.801,VALID,0,VALID,95.529,VALID,0.107441,VALID,19.3893,VALID,146,VALID,0.679688,
2011-04-05, 00:24:04,VALID,918.77,VALID,0,VALID,95.468,VALID,0,VALID,19.3908,VALID,146,VALID,0.494531,
2011-04-05, 00:25:04,VALID,918.758,VALID,0,VALID,95.468,VALID,0.107441,VALID,19.3503,VALID,146,VALID,0.509375,
2011-04-05, 00:26:04,VALID,918.739,VALID,0,VALID,95.4299,VALID,0,VALID,19.3323,VALID,146,VALID,0.800781,
2011-04-05, 00:27:04,VALID,918.716,VALID,0,VALID,95.3842,VALID,0,VALID,19.3128,VALID,146,VALID,0.988672,
2011-04-05, 00:28:04,VALID,918.7,VALID,0,VALID,95.3156,VALID,0,VALID,19.2933,VALID,146,VALID,1.16406,
2011-04-05, 00:29:04,VALID,918.675,VALID,0,VALID,95.2546,VALID,0,VALID,19.2723,VALID,146,VALID,0.680078,
2011-04-05, 00:30:04,VALID,918.695,VALID,0,VALID,95.1783,VALID,0,VALID,19.3128,VALID,146,VALID,0.783984,
2011-04-05, 00:31:04,VALID,918.689,VALID,0,VALID,95.1555,VALID,0,VALID,19.2918,VALID,146,VALID,0.958203,
2011-04-05, 00:32:04,VALID,918.686,VALID,0,VALID,95.0792,VALID,0,VALID,19.2918,VALID,146,VALID,0.846875,
2011-04-05, 00:33:04,VALID,918.687,VALID,0,VALID,95.0106,VALID,0,VALID,19.2918,VALID,146,VALID,0.50625,
2011-04-05, 00:34:04,VALID,918.704,VALID,0,VALID,95.0183,VALID,0,VALID,19.2918,VALID,145,VALID,0.960156,
2011-04-05, 00:35:04,VALID,918.678,VALID,0,VALID,94.7896,VALID,0,VALID,19.2528,VALID,132,VALID,0.630469,
2011-04-05, 00:36:04,VALID,918.65,VALID,0,VALID,94.6142,VALID,0,VALID,19.2558,VALID,132,VALID,0.969922,
2011-04-05, 00:37:04,VALID,918.612,VALID,0,VALID,94.3093,VALID,0,VALID,19.2348,VALID,132,VALID,0.927734,
2011-04-05, 00:38:04,VALID,918.619,VALID,0,VALID,93.9357,VALID,0,VALID,19.2753,VALID,132,VALID,0.776563,
2011-04-05, 00:39:04,VALID,918.606,VALID,0,VALID,93.4859,VALID,0,VALID,19.2738,VALID,126,VALID,0.891406,
2011-04-05, 00:40:04,VALID,918.602,VALID,0,VALID,93.1429,VALID,0,VALID,19.3143,VALID,125,VALID,0.85625,
2011-04-05, 00:41:04,VALID,918.56,VALID,0,VALID,92.8761,VALID,0,VALID,19.3143,VALID,126,VALID,0.826172,
2011-04-05, 00:42:04,VALID,918.541,VALID,0,VALID,92.7693,VALID,0,VALID,19.3143,VALID,125,VALID,0.95,
2011-04-05, 00:43:04,VALID,918.538,VALID,0,VALID,92.6474,VALID,0,VALID,19.2543,VALID,126,VALID,1.07422,
2011-04-05, 00:44:04,VALID,918.54,VALID,0,VALID,92.5483,VALID,0,VALID,19.2543,VALID,125,VALID,0.930469,
2011-04-05, 00:45:04,VALID,918.505,VALID,0,VALID,92.6397,VALID,0,VALID,19.2543,VALID,126,VALID,1.16836,
2011-04-05, 00:46:04,VALID,918.508,VALID,0,VALID,92.9066,VALID,0,VALID,19.2348,VALID,126,VALID,0.968359,
2011-04-05, 00:47:04,VALID,918.498,VALID,0,VALID,93.1429,VALID,0,VALID,19.2153,VALID,125,VALID,1.0543,
2011-04-05, 00:48:04,VALID,918.506,VALID,0,VALID,93.5241,VALID,0,VALID,19.1973,VALID,125,VALID,0.980078,
2011-04-05, 00:49:04,VALID,918.485,VALID,0,VALID,93.8443,VALID,0,VALID,19.1778,VALID,125,VALID,1.1707,
2011-04-05, 00:50:04,VALID,918.46,VALID,0,VALID,94.4541,VALID,0,VALID,19.1973,VALID,125,VALID,1.24414,
2011-04-05, 00:51:04,VALID,918.462,VALID,0,VALID,94.5761,VALID,0,VALID,19.1763,VALID,126,VALID,1.17773,
2011-04-05, 00:52:04,VALID,918.456,VALID,0,VALID,94.8124,VALID,0,VALID,19.1554,VALID,113,VALID,1.31484,
2011-04-05, 00:53:04,VALID,918.436,VALID,0,VALID,94.9192,VALID,0.107441,VALID,19.1359,VALID,113,VALID,1.45859,
2011-04-05, 00:54:04,VALID,918.43,VALID,0,VALID,95.1479,VALID,0.107441,VALID,19.1373,VALID,113,VALID,0.998047,
2011-04-05, 00:55:04,VALID,918.43,VALID,0,VALID,95.2393,VALID,0,VALID,19.0774,VALID,113,VALID,0.911328,
2011-04-05, 00:56:04,VALID,918.44,VALID,0,VALID,95.3156,VALID,0,VALID,19.0788,VALID,113,VALID,0.915234,
2011-04-05, 00:57:04,VALID,918.424,VALID,0,VALID,95.3994,VALID,0,VALID,19.0384,VALID,113,VALID,0.852344,
2011-04-05, 00:58:04,VALID,918.459,VALID,0,VALID,95.4452,VALID,0.107441,VALID,19.0189,VALID,113,VALID,0.547656,
2011-04-05, 00:59:04,VALID,918.414,VALID,0,VALID,95.5062,VALID,0.107441,VALID,19.0008,VALID,113,VALID,0.749219,
2011-04-05, 01:00:04,VALID,918.405,VALID,0,VALID,95.5824,VALID,0.107441,VALID,18.9814,VALID,151,VALID,0.607422,
2011-04-05, 01:01:04,VALID,918.384,VALID,0,VALID,95.5595,VALID,0,VALID,18.9814,VALID,135,VALID,0.671094,
2011-04-05, 01:02:04,VALID,918.315,VALID,0,VALID,95.651,VALID,0,VALID,18.9409,VALID,135,VALID,0.866016,
2011-04-05, 01:03:04,VALID,918.308,VALID,0,VALID,95.7654,VALID,0,VALID,19.0008,VALID,135,VALID,0.787109,
2011-04-05, 01:04:04,VALID,918.271,VALID,0,VALID,95.834,VALID,0,VALID,18.9799,VALID,135,VALID,0.611328,
2011-04-05, 01:05:04,VALID,918.284,VALID,0,VALID,95.8721,VALID,0,VALID,18.9994,VALID,147,VALID,0.565625,
2011-04-05, 01:06:04,VALID,918.29,VALID,0,VALID,95.834,VALID,0.107441,VALID,18.9799,VALID,147,VALID,0.845703,
2011-04-05, 01:07:04,VALID,918.271,VALID,0,VALID,95.8645,VALID,0,VALID,19.0008,VALID,147,VALID,0.788672,
2011-04-05, 01:08:04,VALID,918.27,VALID,0,VALID,95.8187,VALID,0,VALID,18.9409,VALID,147,VALID,0.817578,
2011-04-05, 01:09:04,VALID,918.279,VALID,0,VALID,95.7882,VALID,0,VALID,18.9424,VALID,147,VALID,0.569141,
2011-04-05, 01:10:04,VALID,918.29,VALID,0,VALID,95.7425,VALID,0.107441,VALID,18.9424,VALID,147,VALID,0.78125,
2011-04-05, 01:11:04,VALID,918.279,VALID,0,VALID,95.7577,VALID,0,VALID,18.8824,VALID,147,VALID,0.688281,
2011-04-05, 01:12:04,VALID,918.271,VALID,0,VALID,95.7806,VALID,0,VALID,18.8839,VALID,127,VALID,1.02109,
2011-04-05, 01:13:04,VALID,918.24,VALID,0,VALID,95.8568,VALID,0.107441,VALID,18.8839,VALID,150,VALID,0.894531,
2011-04-05, 01:14:04,VALID,918.263,VALID,0,VALID,95.895,VALID,0,VALID,18.8644,VALID,150,VALID,1.09102,
2011-04-05, 01:15:04,VALID,918.215,VALID,0,VALID,95.8568,VALID,0,VALID,18.8045,VALID,150,VALID,0.590234,
2011-04-05, 01:16:04,VALID,918.206,VALID,0,VALID,95.8263,VALID,0,VALID,18.7864,VALID,150,VALID,0.913672,
2011-04-05, 01:17:04,VALID,918.206,VALID,0,VALID,95.7501,VALID,0,VALID,18.7474,VALID,150,VALID,0.789063,
2011-04-05, 01:18:04,VALID,918.231,VALID,0,VALID,95.6967,VALID,0,VALID,18.7279,VALID,118,VALID,0.850391,
2011-04-05, 01:19:04,VALID,918.219,VALID,0,VALID,95.5748,VALID,0,VALID,18.7279,VALID,118,VALID,0.701563,
2011-04-05, 01:20:04,VALID,918.204,VALID,0,VALID,95.3918,VALID,0,VALID,18.7084,VALID,118,VALID,0.868359,
2011-04-05, 01:21:04,VALID,918.145,VALID,0,VALID,95.2012,VALID,0,VALID,18.7279,VALID,118,VALID,1.06719,
2011-04-05, 01:22:04,VALID,918.094,VALID,0,VALID,95.0792,VALID,0,VALID,18.7878,VALID,118,VALID,1.34063,
2011-04-05, 01:23:04,VALID,918.085,VALID,0,VALID,95.0106,VALID,0,VALID,18.8059,VALID,118,VALID,1.36094,
2011-04-05, 01:24:04,VALID,918.08,VALID,0,VALID,94.942,VALID,0,VALID,18.8254,VALID,118,VALID,1.05859,
2011-04-05, 01:25:04,VALID,918.072,VALID,0,VALID,94.8505,VALID,0,VALID,18.8045,VALID,119,VALID,0.732813,
2011-04-05, 01:26:04,VALID,918.039,VALID,0,VALID,94.8353,VALID,0,VALID,18.8449,VALID,119,VALID,0.655078,
2011-04-05, 01:27:04,VALID,918.027,VALID,0,VALID,94.7743,VALID,0,VALID,18.8254,VALID,138,VALID,0.679688,
2011-04-05, 01:28:04,VALID,918.004,VALID,0,VALID,94.6828,VALID,0.107441,VALID,18.8059,VALID,138,VALID,0.753906,
2011-04-05, 01:29:04,VALID,917.957,VALID,0,VALID,94.5837,VALID,0,VALID,18.785,VALID,138,VALID,0.784766,
2011-04-05, 01:30:04,VALID,917.955,VALID,0,VALID,94.2788,VALID,0,VALID,18.7864,VALID,138,VALID,0.959375,
2011-04-05, 01:31:04,VALID,917.957,VALID,0,VALID,93.7909,VALID,0,VALID,18.7655,VALID,138,VALID,0.963281,
2011-04-05, 01:32:04,VALID,917.93,VALID,0,VALID,93.5088,VALID,0,VALID,18.7864,VALID,138,VALID,1.25469,
2011-04-05, 01:33:04,VALID,917.934,VALID,0,VALID,93.1581,VALID,0,VALID,18.8059,VALID,138,VALID,1.07813,
2011-04-05, 01:34:04,VALID,917.924,VALID,0,VALID,92.8456,VALID,0,VALID,18.8059,VALID,138,VALID,0.905078,
2011-04-05, 01:35:04,VALID,917.918,VALID,0,VALID,92.7084,VALID,0,VALID,18.7864,VALID,138,VALID,0.864062,
2011-04-05, 01:36:04,VALID,917.91,VALID,0,VALID,92.6245,VALID,0,VALID,18.7669,VALID,138,VALID,0.827734,
2011-04-05, 01:37:04,VALID,917.882,VALID,0,VALID,92.6169,VALID,0,VALID,18.7878,VALID,138,VALID,0.680078,
2011-04-05, 01:38:04,VALID,917.856,VALID,0,VALID,92.1366,VALID,0,VALID,18.7084,VALID,138,VALID,0.564453,
2011-04-05, 01:39:04,VALID,917.868,VALID,0,VALID,92.655,VALID,0.107441,VALID,18.6304,VALID,138,VALID,0.810938,
2011-04-05, 01:40:04,VALID,917.811,VALID,0,VALID,92.9904,VALID,0,VALID,18.5511,VALID,138,VALID,0.867969,
2011-04-05, 01:41:04,VALID,917.848,VALID,0,VALID,93.2344,VALID,0.107441,VALID,18.5121,VALID,138,VALID,0.940234,
2011-04-05, 01:42:04,VALID,917.875,VALID,0,VALID,93.6689,VALID,0,VALID,18.494,VALID,138,VALID,0.873828,
2011-04-05, 01:43:04,VALID,917.908,VALID,0,VALID,94.0958,VALID,0,VALID,18.5135,VALID,138,VALID,0.883984,
2011-04-05, 01:44:04,VALID,917.952,VALID,0,VALID,94.2864,VALID,0,VALID,18.533,VALID,138,VALID,0.641016,
2011-04-05, 01:45:04,VALID,917.966,VALID,0,VALID,94.1339,VALID,0.107441,VALID,18.5135,VALID,138,VALID,0.435937,
2011-04-05, 01:46:04,VALID,917.943,VALID,0,VALID,94.538,VALID,0,VALID,18.533,VALID,138,VALID,0.939844,
2011-04-05, 01:47:04,VALID,917.926,VALID,0,VALID,94.7209,VALID,0,VALID,18.4731,VALID,138,VALID,0.630859,
2011-04-05, 01:48:04,VALID,917.934,VALID,0,VALID,94.9344,VALID,0,VALID,18.5344,VALID,138,VALID,0.79375,
2011-04-05, 01:49:04,VALID,917.927,VALID,0,VALID,95.1631,VALID,0,VALID,18.5135,VALID,138,VALID,0.485547,
2011-04-05, 01:50:04,VALID,917.902,VALID,0,VALID,95.3156,VALID,0,VALID,18.494,VALID,138,VALID,0.753125,
2011-04-05, 01:51:04,VALID,917.876,VALID,0,VALID,95.4833,VALID,0,VALID,18.4731,VALID,138,VALID,0.615234,
2011-04-05, 01:52:04,VALID,917.842,VALID,0,VALID,95.6662,VALID,0.107441,VALID,18.5135,VALID,162,VALID,1.01914,
2011-04-05, 01:53:04,VALID,917.836,VALID,0,VALID,95.8187,VALID,0,VALID,18.5135,VALID,162,VALID,0.955859,
2011-04-05, 01:54:04,VALID,917.792,VALID,0,VALID,95.9712,VALID,0.107441,VALID,18.5316,VALID,164,VALID,1.3125,
2011-04-05, 01:55:04,VALID,917.79,VALID,0,VALID,96.0627,VALID,0,VALID,18.5525,VALID,164,VALID,0.691016,
2011-04-05, 01:56:04,VALID,917.791,VALID,0,VALID,96.1084,VALID,0,VALID,18.533,VALID,164,VALID,0.68125,
2011-04-05, 01:57:04,VALID,917.816,VALID,0,VALID,96.1846,VALID,0,VALID,18.572,VALID,164,VALID,0.514063,
2011-04-05, 01:58:04,VALID,917.822,VALID,0,VALID,96.2151,VALID,0,VALID,18.5525,VALID,164,VALID,0.602734,
2011-04-05, 01:59:04,VALID,917.827,VALID,0,VALID,96.1999,VALID,0,VALID,18.533,VALID,164,VALID,0.455469,
2011-04-05, 02:00:04,VALID,917.868,VALID,0,VALID,96.2151,VALID,0,VALID,18.5135,VALID,164,VALID,0.257422,
2011-04-05, 02:01:04,VALID,917.865,VALID,0,VALID,96.2609,VALID,0,VALID,18.4731,VALID,164,VALID,0.512891,
2011-04-05, 02:02:04,VALID,917.871,VALID,0,VALID,96.2761,VALID,0,VALID,18.455,VALID,164,VALID,0.463281,
2011-04-05, 02:03:04,VALID,917.86,VALID,0,VALID,96.2761,VALID,0,VALID,18.4355,VALID,164,VALID,0.598828,
2011-04-05, 02:04:04,VALID,917.844,VALID,0,VALID,96.3142,VALID,0,VALID,18.416,VALID,164,VALID,0.879297,
2011-04-05, 02:05:04,VALID,917.797,VALID,0,VALID,96.2533,VALID,0.107441,VALID,18.377,VALID,163,VALID,0.810156,
2011-04-05, 02:06:04,VALID,917.774,VALID,0,VALID,96.1846,VALID,0,VALID,18.3965,VALID,163,VALID,0.780078,
2011-04-05, 02:07:04,VALID,917.76,VALID,0,VALID,96.0855,VALID,0,VALID,18.3965,VALID,163,VALID,0.671484,
2011-04-05, 02:08:04,VALID,917.727,VALID,0,VALID,95.9407,VALID,0,VALID,18.3965,VALID,163,VALID,0.722656,
2011-04-05, 02:09:04,VALID,917.701,VALID,0,VALID,95.6891,VALID,0,VALID,18.3965,VALID,163,VALID,0.694922,
2011-04-05, 02:10:04,VALID,917.659,VALID,0,VALID,95.3766,VALID,0.107441,VALID,18.3951,VALID,163,VALID,0.914063,
2011-04-05, 02:11:04,VALID,917.633,VALID,0,VALID,95.0259,VALID,0.107441,VALID,18.455,VALID,162,VALID,0.945313,
2011-04-05, 02:12:04,VALID,917.618,VALID,0,VALID,94.6981,VALID,0.107441,VALID,18.4536,VALID,162,VALID,0.833203,
2011-04-05, 02:13:04,VALID,917.617,VALID,0,VALID,94.416,VALID,0.107441,VALID,18.4536,VALID,162,VALID,0.858984,
2011-04-05, 02:14:04,VALID,917.629,VALID,0,VALID,94.1797,VALID,0.107441,VALID,18.4745,VALID,162,VALID,0.5125,
2011-04-05, 02:15:04,VALID,917.605,VALID,0,VALID,94.0425,VALID,0.107441,VALID,18.4341,VALID,162,VALID,0.695703,
2011-04-05, 02:16:04,VALID,917.596,VALID,0,VALID,94.0577,VALID,0.107441,VALID,18.3951,VALID,162,VALID,0.908203,
2011-04-05, 02:17:04,VALID,917.562,VALID,0,VALID,94.0806,VALID,0.107441,VALID,18.3756,VALID,162,VALID,0.767187,
2011-04-05, 02:18:04,VALID,917.523,VALID,0,VALID,94.1644,VALID,0.107441,VALID,18.377,VALID,162,VALID,0.425781,
2011-04-05, 02:19:04,VALID,917.532,VALID,0,VALID,94.233,VALID,0,VALID,18.377,VALID,162,VALID,0.119141,
2011-04-05, 02:20:04,VALID,917.481,VALID,0,VALID,94.3093,VALID,0.107441,VALID,18.377,VALID,162,VALID,0,
2011-04-05, 02:21:04,VALID,917.488,VALID,0,VALID,94.3931,VALID,0,VALID,18.377,VALID,162,VALID,0.000390625,
2011-04-05, 02:22:04,VALID,917.463,VALID,0,VALID,94.4465,VALID,0.107441,VALID,18.377,VALID,162,VALID,0.66875,
2011-04-05, 02:23:04,VALID,917.436,VALID,0,VALID,94.4694,VALID,0,VALID,18.377,VALID,162,VALID,0.619531,
2011-04-05, 02:24:04,VALID,917.463,VALID,0,VALID,94.6142,VALID,0.107441,VALID,18.377,VALID,162,VALID,0.352344,
2011-04-05, 02:25:04,VALID,917.49,VALID,0,VALID,94.7438,VALID,0.107441,VALID,18.3965,VALID,162,VALID,0.152344,
2011-04-05, 02:26:04,VALID,917.483,VALID,0,VALID,94.9496,VALID,0.107441,VALID,18.416,VALID,162,VALID,0,
2011-04-05, 02:27:04,VALID,917.479,VALID,0,VALID,95.1097,VALID,0,VALID,18.416,VALID,162,VALID,0.444141,
2011-04-05, 02:28:04,VALID,917.458,VALID,0,VALID,95.1783,VALID,0.107441,VALID,18.3756,VALID,162,VALID,0.743359,
2011-04-05, 02:29:04,VALID,917.438,VALID,0,VALID,95.2698,VALID,0,VALID,18.3575,VALID,162,VALID,0.479297,
2011-04-05, 02:30:04,VALID,917.423,VALID,0,VALID,95.3842,VALID,0,VALID,18.338,VALID,162,VALID,0,
2011-04-05, 02:31:04,VALID,917.418,VALID,0,VALID,95.3994,VALID,0.107441,VALID,18.299,VALID,162,VALID,0,
2011-04-05, 02:32:04,VALID,917.353,VALID,0,VALID,94.8887,VALID,0,VALID,18.1431,VALID,162,VALID,0.0796875,
2011-04-05, 02:33:04,VALID,917.332,VALID,0,VALID,94.7057,VALID,0,VALID,18.0457,VALID,162,VALID,0.241406,
2011-04-05, 02:34:04,VALID,917.306,VALID,0,VALID,94.8353,VALID,0,VALID,17.9677,VALID,162,VALID,0.305078,
2011-04-05, 02:35:04,VALID,917.282,VALID,0,VALID,95.2012,VALID,0.107441,VALID,17.9663,VALID,162,VALID,0.489062,
2011-04-05, 02:36:04,VALID,917.232,VALID,0,VALID,95.5062,VALID,0,VALID,18.008,VALID,162,VALID,0.714453,
2011-04-05, 02:37:04,VALID,917.237,VALID,0,VALID,95.651,VALID,0,VALID,18.008,VALID,162,VALID,0.945703,
2011-04-05, 02:38:04,VALID,917.204,VALID,0,VALID,95.4299,VALID,0,VALID,17.9106,VALID,162,VALID,0.738672,
2011-04-05, 02:39:04,VALID,917.222,VALID,0,VALID,95.3003,VALID,0,VALID,17.8131,VALID,162,VALID,0.15,
2011-04-05, 02:40:04,VALID,917.199,VALID,0,VALID,95.5138,VALID,0,VALID,17.7936,VALID,162,VALID,0.147266,
2011-04-05, 02:41:04,VALID,917.169,VALID,0,VALID,95.7501,VALID,0,VALID,17.8521,VALID,162,VALID,0.366406,
2011-04-05, 02:42:04,VALID,917.136,VALID,0,VALID,95.9483,VALID,0,VALID,17.9496,VALID,162,VALID,0.733984,
2011-04-05, 02:43:04,VALID,917.104,VALID,0,VALID,96.1465,VALID,0,VALID,18.047,VALID,162,VALID,0.553125,
2011-04-05, 02:44:04,VALID,917.083,VALID,0,VALID,96.1923,VALID,0,VALID,18.086,VALID,162,VALID,0.021875,
2011-04-05, 02:45:04,VALID,917.07,VALID,0,VALID,95.9636,VALID,0,VALID,18.086,VALID,162,VALID,0,
2011-04-05, 02:46:04,VALID,917.008,VALID,0,VALID,95.8263,VALID,0,VALID,18.047,VALID,162,VALID,0,
2011-04-05, 02:47:04,VALID,917.009,VALID,0,VALID,95.6891,VALID,0,VALID,18.047,VALID,162,VALID,0.300391,
2011-04-05, 02:48:04,VALID,916.981,VALID,0,VALID,95.8187,VALID,0,VALID,18.1041,VALID,162,VALID,0.833203,
2011-04-05, 02:49:04,VALID,916.983,VALID,0,VALID,95.7425,VALID,0,VALID,18.1431,VALID,162,VALID,0.848047,
2011-04-05, 02:50:04,VALID,916.994,VALID,0,VALID,95.7044,VALID,0,VALID,18.1431,VALID,162,VALID,0.615625,
2011-04-05, 02:51:04,VALID,916.965,VALID,0,VALID,95.247,VALID,0.107441,VALID,18.0846,VALID,162,VALID,0.5125,
2011-04-05, 02:52:04,VALID,916.972,VALID,0,VALID,94.1187,VALID,0,VALID,17.9482,VALID,162,VALID,0.491016,
2011-04-05, 02:53:04,VALID,916.964,VALID,0,VALID,93.707,VALID,0,VALID,17.8313,VALID,162,VALID,0.548828,
2011-04-05, 02:54:04,VALID,917.007,VALID,0,VALID,94.4999,VALID,0,VALID,17.8313,VALID,162,VALID,0.815625,
2011-04-05, 02:55:04,VALID,917.033,VALID,0,VALID,95.3079,VALID,0,VALID,17.9287,VALID,162,VALID,0.889063,
2011-04-05, 02:56:04,VALID,917.061,VALID,0,VALID,95.651,VALID,0,VALID,18.0262,VALID,162,VALID,0.987109,
2011-04-05, 02:57:04,VALID,917.103,VALID,0,VALID,95.6586,VALID,0,VALID,18.0846,VALID,162,VALID,0.782812,
2011-04-05, 02:58:04,VALID,917.097,VALID,0,VALID,95.5062,VALID,0,VALID,18.0651,VALID,162,VALID,0.565234,
2011-04-05, 02:59:04,VALID,917.091,VALID,0,VALID,95.4375,VALID,0.107441,VALID,18.1055,VALID,162,VALID,0.677734,
2011-04-05, 03:00:04,VALID,917.104,VALID,0,VALID,95.3613,VALID,0,VALID,18.1041,VALID,161,VALID,0.833984,
2011-04-05, 03:01:04,VALID,917.046,VALID,0,VALID,95.3308,VALID,0,VALID,18.0846,VALID,161,VALID,1.01211,
2011-04-05, 03:02:04,VALID,917.042,VALID,0,VALID,95.3156,VALID,0.107441,VALID,18.1041,VALID,126,VALID,0.978516,
2011-04-05, 03:03:04,VALID,917.026,VALID,0,VALID,95.3461,VALID,0,VALID,18.1236,VALID,126,VALID,0.727344,
2011-04-05, 03:04:04,VALID,917.06,VALID,0,VALID,95.2088,VALID,0,VALID,18.0846,VALID,126,VALID,0.957812,
2011-04-05, 03:05:04,VALID,917.043,VALID,0,VALID,95.3079,VALID,0,VALID,18.0846,VALID,126,VALID,0.550781,
2011-04-05, 03:06:04,VALID,917.057,VALID,0,VALID,95.2317,VALID,0,VALID,18.0665,VALID,126,VALID,0.696094,
2011-04-05, 03:07:04,VALID,917.077,VALID,0,VALID,95.3232,VALID,0,VALID,18.086,VALID,126,VALID,0.765625,
2011-04-05, 03:08:04,VALID,917.079,VALID,0,VALID,95.3918,VALID,0,VALID,18.086,VALID,126,VALID,0.835156,
2011-04-05, 03:09:04,VALID,917.126,VALID,0,VALID,95.468,VALID,0,VALID,18.1055,VALID,126,VALID,0.733203,
2011-04-05, 03:10:04,VALID,917.108,VALID,0,VALID,95.4299,VALID,0.107441,VALID,18.0651,VALID,126,VALID,0.462891,
2011-04-05, 03:11:04,VALID,917.096,VALID,0,VALID,95.4375,VALID,0,VALID,18.0262,VALID,126,VALID,0.346875,
2011-04-05, 03:12:04,VALID,917.123,VALID,0,VALID,95.3079,VALID,0,VALID,17.9287,VALID,126,VALID,0.161719,
2011-04-05, 03:13:04,VALID,917.134,VALID,0,VALID,95.2241,VALID,0,VALID,17.8702,VALID,126,VALID,0,
2011-04-05, 03:14:04,VALID,917.186,VALID,0,VALID,95.3613,VALID,0,VALID,17.8702,VALID,126,VALID,0.0015625,
2011-04-05, 03:15:04,VALID,917.178,VALID,0,VALID,95.4604,VALID,0,VALID,17.8702,VALID,126,VALID,0.405078,
2011-04-05, 03:16:04,VALID,917.198,VALID,0,VALID,95.6434,VALID,0,VALID,17.9092,VALID,126,VALID,0.769141,
2011-04-05, 03:17:04,VALID,917.186,VALID,0,VALID,95.8797,VALID,0,VALID,17.9677,VALID,126,VALID,0.901953,
2011-04-05, 03:18:04,VALID,917.177,VALID,0,VALID,95.9864,VALID,0,VALID,17.9872,VALID,126,VALID,0.989844,
2011-04-05, 03:19:04,VALID,917.171,VALID,0,VALID,96.055,VALID,0,VALID,18.008,VALID,126,VALID,1.0582,
2011-04-05, 03:20:04,VALID,917.155,VALID,0,VALID,96.0855,VALID,0,VALID,18.0067,VALID,126,VALID,1.04922,
2011-04-05, 03:21:04,VALID,917.122,VALID,0,VALID,96.0398,VALID,0,VALID,18.0275,VALID,144,VALID,0.8875,
2011-04-05, 03:22:04,VALID,917.11,VALID,0,VALID,95.9712,VALID,0,VALID,18.0067,VALID,144,VALID,0.996484,
2011-04-05, 03:23:04,VALID,917.077,VALID,0,VALID,95.9026,VALID,0,VALID,18.0262,VALID,144,VALID,0.533203,
2011-04-05, 03:24:04,VALID,917.124,VALID,0,VALID,95.8416,VALID,0,VALID,18.0457,VALID,144,VALID,0.731641,
2011-04-05, 03:25:04,VALID,917.161,VALID,0,VALID,95.712,VALID,0,VALID,18.0846,VALID,144,VALID,0.463672,
2011-04-05, 03:26:04,VALID,917.238,VALID,0,VALID,95.5138,VALID,0,VALID,18.125,VALID,144,VALID,0.596875,
2011-04-05, 03:27:04,VALID,917.264,VALID,0,VALID,95.1555,VALID,0,VALID,18.1236,VALID,144,VALID,0.326172,
2011-04-05, 03:28:04,VALID,917.276,VALID,0,VALID,94.4694,VALID,0,VALID,18.1055,VALID,144,VALID,0.530469,
2011-04-05, 03:29:04,VALID,917.299,VALID,0,VALID,94.1492,VALID,0,VALID,18.0262,VALID,144,VALID,0.770703,
2011-04-05, 03:30:04,VALID,917.313,VALID,0,VALID,94.1568,VALID,0,VALID,18.008,VALID,144,VALID,0.867578,
2011-04-05, 03:31:04,VALID,917.302,VALID,0,VALID,94.0958,VALID,0,VALID,17.9092,VALID,144,VALID,0.825,
2011-04-05, 03:32:04,VALID,917.302,VALID,0,VALID,94.4922,VALID,0,VALID,17.9287,VALID,144,VALID,0.784375,
2011-04-05, 03:33:04,VALID,917.31,VALID,0,VALID,94.5913,VALID,0.107441,VALID,17.9496,VALID,144,VALID,0.73125,
2011-04-05, 03:34:04,VALID,917.305,VALID,0,VALID,94.538,VALID,0,VALID,17.9691,VALID,144,VALID,0.601953,
2011-04-05, 03:35:04,VALID,917.298,VALID,0,VALID,94.2178,VALID,0,VALID,17.9092,VALID,144,VALID,0.366797,
2011-04-05, 03:36:04,VALID,917.221,VALID,0,VALID,94.2712,VALID,0,VALID,17.8897,VALID,144,VALID,0.275,
2011-04-05, 03:37:04,VALID,917.21,VALID,0,VALID,94.3626,VALID,0,VALID,17.8897,VALID,144,VALID,0.15,
2011-04-05, 03:38:04,VALID,917.185,VALID,0,VALID,94.3855,VALID,0,VALID,17.9301,VALID,144,VALID,0,
2011-04-05, 03:39:04,VALID,917.155,VALID,0,VALID,94.416,VALID,0.107441,VALID,17.9301,VALID,144,VALID,0,
2011-04-05, 03:40:04,VALID,917.152,VALID,0,VALID,94.4617,VALID,0,VALID,17.9092,VALID,144,VALID,0,
2011-04-05, 03:41:04,VALID,917.136,VALID,0,VALID,94.3931,VALID,0,VALID,17.9287,VALID,144,VALID,0.166797,
2011-04-05, 03:42:04,VALID,917.147,VALID,0,VALID,94.416,VALID,0,VALID,17.9287,VALID,144,VALID,0.376953,